Retour au catalogue

COSMOS 1490

GLONASS

ActifNavigationMEO
NORAD 14258·PAYLOAD·🇷🇺 Russia

Lancé Aug 10, 1983 depuis Baikonur Cosmodrome

Loading…

Prochains Passages (prochaines 24 heures)

TLE

FraisSource: Space-Track

Époque: Sep 12, 2026, 06:57 UTC

1 14258U 83084A   26255.29000836 -.00000002  00000-0  00000-0 0  9994
2 14258  64.9083  69.8163 0015064  19.7046 337.5928  2.13103275335291

Suivez COSMOS 1490 en temps réel avec AllMySat

Download on the App Store